TimeEST,TemperatureF,Dew PointF,Humidity,Sea Level PressureIn,VisibilityMPH,Wind Direction,Wind SpeedMPH,Gust SpeedMPH,PrecipitationIn,Events,Conditions,WindDirDegrees,DateUTC
12:51 AM,24.1,16.0,71,30.32,10.0,West,3.5,-,N/A,,Scattered Clouds,270,2013-01-04 05:51:00
1:51 AM,23.0,16.0,74,30.32,10.0,WNW,4.6,-,N/A,,Scattered Clouds,300,2013-01-04 06:51:00
2:03 AM,23.0,15.8,74,30.22,10.0,WNW,4.6,-,N/A,,Mostly Cloudy,290,2013-01-04 07:03:00
2:38 AM,23.0,15.8,74,30.23,10.0,West,3.5,-,N/A,,Scattered Clouds,280,2013-01-04 07:38:00
2:51 AM,21.9,16.0,78,30.33,10.0,West,4.6,-,N/A,,Mostly Cloudy,280,2013-01-04 07:51:00
4:51 AM,24.1,16.0,71,30.33,10.0,WNW,8.1,16.1,N/A,,Overcast,290,2013-01-04 09:51:00
5:51 AM,24.1,16.0,71,30.32,10.0,West,5.8,-,N/A,,Overcast,280,2013-01-04 10:51:00
6:51 AM,24.1,17.1,75,30.33,10.0,West,11.5,-,N/A,,Overcast,270,2013-01-04 11:51:00
7:51 AM,24.1,17.1,75,30.35,10.0,WNW,9.2,16.1,N/A,,Overcast,290,2013-01-04 12:51:00
8:51 AM,24.1,17.1,75,30.37,10.0,WNW,6.9,-,N/A,,Overcast,300,2013-01-04 13:51:00
9:51 AM,24.1,17.1,75,30.39,10.0,West,13.8,-,N/A,,Overcast,270,2013-01-04 14:51:00
10:51 AM,25.0,17.1,72,30.39,10.0,West,13.8,20.7,N/A,,Overcast,270,2013-01-04 15:51:00
11:51 AM,25.0,18.0,75,30.35,10.0,West,16.1,-,N/A,,Overcast,270,2013-01-04 16:51:00
12:51 PM,26.1,18.0,71,30.35,10.0,WSW,12.7,-,N/A,,Overcast,250,2013-01-04 17:51:00
1:51 PM,27.0,18.0,69,30.33,10.0,WSW,11.5,18.4,N/A,,Overcast,250,2013-01-04 18:51:00
2:51 PM,28.4,17.6,64,30.22,10.0,NW,15.0,19.6,N/A,,Mostly Cloudy,310,2013-01-04 19:51:00
3:18 PM,28.4,17.6,64,30.21,10.0,WNW,8.1,-,N/A,,Scattered Clouds,290,2013-01-04 20:18:00
3:51 PM,28.9,19.0,67,30.33,10.0,WNW,13.8,19.6,N/A,,Partly Cloudy,290,2013-01-04 20:51:00
4:07 PM,28.4,19.4,69,30.23,10.0,WNW,12.7,-,N/A,,Mostly Cloudy,290,2013-01-04 21:07:00
4:51 PM,28.9,19.0,67,30.32,10.0,West,10.4,-,N/A,,Overcast,280,2013-01-04 21:51:00
5:51 PM,28.0,19.9,72,30.35,10.0,West,9.2,-,N/A,,Overcast,280,2013-01-04 22:51:00
6:49 PM,28.4,19.4,69,30.26,10.0,West,6.9,-,N/A,,Overcast,280,2013-01-04 23:49:00
6:51 PM,28.9,19.9,69,30.37,10.0,WNW,8.1,-,N/A,,Overcast,290,2013-01-04 23:51:00
7:51 PM,28.0,18.0,66,30.38,10.0,West,12.7,-,N/A,,Partly Cloudy,260,2013-01-05 00:51:00
8:51 PM,27.0,18.0,69,30.38,10.0,West,6.9,-,N/A,,Clear,280,2013-01-05 01:51:00
9:51 PM,26.1,17.1,69,30.39,10.0,WNW,5.8,-,N/A,,Clear,290,2013-01-05 02:51:00
10:51 PM,26.1,18.0,71,30.39,10.0,WNW,4.6,-,N/A,,Clear,290,2013-01-05 03:51:00
11:51 PM,25.0,18.0,75,30.40,10.0,WNW,5.8,-,N/A,,Clear,290,2013-01-05 04:51:00